Regional Weather Roundup
Issued by NWS

Home | Current Version | Previous Version | Graphics & Text | Print | Product List | Glossary Off
Versions: 1 2 3 4 5 6 7 8 9 10 11 12 13 14 15 16 17 18 19 20 21 22 23 24 25 26 27 28 29 30 31 32 33 34 35 36 37 38 39 40 41 42 43 44 45 46 47 48 49 50

000
ASUS43 KMPX 271010
RWRMN
WEATHER ROUNDUP FOR MINNESOTA
NATIONAL WEATHER SERVICE TWIN CITIES/CHANHASSEN MN
400 AM CST FRI FEB 27 2015


NOTE: "FAIR" INDICATES FEW OR NO CLOUDS BELOW 12,000 FEET WITH NO
SIGNIFICANT WEATHER AND/OR OBSTRUCTIONS TO VISIBILITY. N/A MEANS
CURRENT SKY AND/OR WEATHER CONDITIONS ARE NOT AVAILABLE.

MNZ060>063-068>070-271100-
   Twin Cities Metro

CITY           SKY/WX    TMP DP  RH WIND       PRES   REMARKS
TWIN CITIES    CLEAR     -2  -9  72 W3        30.51S
ST PAUL        CLEAR     -1  -8  72 W6        30.53S WCI -13
CRYSTAL        CLEAR     -3 -10  72 W3        30.50S
BLAINE         CLEAR      0  -8  71 CALM      30.49S
EDEN PRAIRIE   FAIR      -7 -12  79 SW5       30.50S WCI -18
SOUTH ST PAUL  CLEAR     -2  -8  76 W3        30.51S
LAKE ELMO      FAIR      -4  -9  77 CALM      30.50S
$$
MNZ001>005-007-008-013>017-022>024-027-028-271100-
   Northwest Minnesota

CITY           SKY/WX    TMP DP  RH WIND       PRES   REMARKS
BEMIDJI        PTCLDY   -10 -15  81 CALM      30.38F
HALLOCK        MOCLDY   -15 -20  76 S8        30.41F WCI -32
ROSEAU         MOCLDY    -9 -17  70 SW8       30.39S WCI -26
WARROAD        MOCLDY    -9 -15  77 SW6       30.37S WCI -23
THIEF RVR FALL PTCLDY   -11 -24  53 SW5       30.41S WCI -23
CROOKSTON      PTCLDY   -15 -18  84 S6        30.46F WCI -29
FOSSTON        MOCLDY   -18 -22  83 S7        30.42S WCI -35
DETROIT LAKES  PTCLDY    -8 -11  84 CALM      30.43S
MOORHEAD       PTCLDY    -8 -11  84 SW6       30.49S WCI -21
PARK RAPIDS    PTCLDY   -13 -19  75 W5        30.39S WCI -25
MAHNOMEN       FAIR     -11 -16  80 S6        30.43S WCI -25
$$
MNZ006-009>011-018-025>026-271100-
   North Central Minnesota

CITY           SKY/WX    TMP DP  RH WIND       PRES   REMARKS
BAUDETTE       MOCLDY   -13 -18  78 W3        30.35S
FLAG ISLAND    PTCLDY   -13 -18  77 S5        30.35S WCI -25
INTL FALLS     MOCLDY   -16 -21  78 CALM      30.36S
WASKISH        MOCLDY    -9 -13  84 SW6       30.39R WCI -23
BIG FORK       MOCLDY   -20 -27  69 S3        30.37R
LONGVILLE      PTCLDY   -20 -26  76 CALM      30.40F
GRAND RAPIDS   MOCLDY    -9 -15  77 W3        30.36S
CRANE LAKE     MOCLDY   -26 -31  75 CALM      30.38F
ORR            MOCLDY   -17 -24  70 CALM      30.32S
COOK           MOCLDY   -17 -22  76 CALM      30.36S
WALKER         FAIR      -7 -12  81 W5        30.39F WCI -18
$$
MNZ012-019>021-037-271100-
   Northeast Minnesota

CITY           SKY/WX    TMP DP  RH WIND       PRES   REMARKS
DULUTH         PTCLDY    -8 -14  74 W7        30.35R WCI -23
ELY            MOCLDY   -18 -22  83 SW3       30.33S
HIBBING        MOCLDY   -19 -25  73 CALM      30.36S
EVELETH        MOCLDY   -11 -17  77 W6        30.36S WCI -25
DULUTH HARBOR  PTCLDY    -6 -13  71 CALM      30.47S
TWO HARBORS    PTCLDY    -6 -15  65 CALM      30.35S
SILVER BAY     PTCLDY    -6 -13  71 CALM      30.34S
GRAND MARAIS     N/A     -5 -13  68 SW7       30.38S WCI -19
G MARAIS ARPRT PTCLDY    -8 -17  65 NW3       30.24R
$$
MNZ029>031-032-039>041-046>048-054>057-064-271100-
   West Central Minnesota

CITY           SKY/WX    TMP DP  RH WIND       PRES   REMARKS
FERGUS FALLS   CLEAR     -9 -15  77 SW3       30.52S
WHEATON        CLEAR     -9 -15  77 SW6       30.52F WCI -23
MORRIS         CLEAR     -9 -15  77 CALM      30.48F
ALEXANDRIA     CLEAR     -9 -13  83 W6        30.44F WCI -22
ELBOW LAKE     FAIR     -10 -14  82 SW6       30.47S WCI -24
WADENA         PTCLDY   -11 -15  84 W5        30.43R WCI -23
GLENWOOD       CLEAR     -9 -13  84 W8        30.47S WCI -26
APPLETON       FAIR     -11 -17  77 W6        30.52S WCI -25
BENSON         CLEAR    -11 -17  77 CALM      30.49F
ORTONVILLE     CLEAR     -8 -13  77 W5        30.51S WCI -19
MADISON        CLEAR     -8 -15  71 W5        30.53S WCI -19
WILLMAR        FAIR      -9 -17  70 W5        30.50S WCI -21
$$
MNZ033>034-036-042>043-049>051-058-059-271100-
   Central Minnesota

CITY           SKY/WX    TMP DP  RH WIND       PRES   REMARKS
ST CLOUD       CLEAR     -6 -10  83 SW3       30.48S
SAUK CENTRE    FAIR      -8 -11  83 W3        30.47S
PAYNESVILLE    CLEAR    -13 -16  84 SW6       30.48F WCI -27
AITKIN         CLEAR     -6 -11  77 CALM      30.41S
PINE RIVER     PTCLDY   -17 -20  83 CALM      30.44S
BRAINERD       CLEAR    -14 -18  82 CALM      30.43F
STAPLES        PTCLDY   -11 -17  77 W5        30.43S WCI -23
LONG PRAIRIE     N/A     -8 -11  84 CALM      30.45S
LITTLE FALLS   CLEAR    -11 -17  77 CALM      30.47S
LITCHFIELD     CLEAR     -8 -11  84 CALM      30.49S
BUFFALO        CLEAR     -4  -9  77 W3        30.51R
MAPLE LAKE     CLEAR     -2  -7  82 W6        30.50S WCI -14
$$
MNZ037-044-045-052-053-271100-
   East Central Minnesota

CITY           SKY/WX    TMP DP  RH WIND       PRES   REMARKS
PRINCETON      CLEAR     -8 -13  77 CALM      30.47S
MORA           CLEAR    -15 -22  70 CALM      30.47S
CAMBRIDGE      CLEAR     -8 -15  71 CALM      30.46F
RUSH CITY      PTCLDY    -8 -14  78 CALM      30.48S
MOOSE LAKE     CLEAR     -6 -13  71 CALM      30.41S
HINCKLEY       FAIR      -8 -13  77 CALM      30.45S
CLOQUET        FAIR      -8 -15  71 W7        30.38R WCI -22
MCGREGOR       CLEAR     -6 -11  77 CALM      30.42R
$$
MNZ071>073-080-081-089-090-097-098-271100-
   Southwest Minnesota

CITY           SKY/WX    TMP DP  RH WIND       PRES   REMARKS
MONTEVIDEO     CLEAR     -8 -13  77 W5        30.53S WCI -19
GRANITE FALLS  CLEAR    -11 -16  80 SW7       30.54S WCI -26
CANBY          CLEAR     -6 -12  75 SW7       30.52F WCI -20
MARSHALL       CLEAR     -9 -15  77 W5        30.52S WCI -21
REDWOOD FALLS  CLEAR     -9 -14  78 W8        30.53S WCI -25
OLIVIA         CLEAR    -11 -17  77 W5        30.52S WCI -23
PIPESTONE      PTCLDY   -11 -17  77 CALM      30.47S
WINDOM         CLEAR    -13 -18  77 CALM      30.49S
WORTHINGTON    CLEAR     19 -22  15 W7        30.50S WCI  10
JACKSON        CLEAR     -9 -17  70 W6        30.49S WCI -23
TRACY          CLEAR     -8 -14  75 W8        30.50S WCI -24
SLAYTON        CLEAR     -8 -13  76 CALM      30.48S
$$
MNZ065>067-074>077-082>085-091>093-271100-
   South Central Minnesota

CITY           SKY/WX    TMP DP  RH WIND       PRES   REMARKS
MANKATO        CLEAR     -8 -15  71 W6        30.50S WCI -21
NEW ULM        CLEAR    -15 -18  84 W3        30.52S
ST JAMES       CLEAR     -9 -17  70 W7        30.53R WCI -24
FAIRMONT       CLEAR     -8 -18  59 NW6       30.49S WCI -21
GLENCOE        CLEAR     -7 -11  83 W3        30.50S
FARIBAULT      PTCLDY   -15 -18  84 CALM      30.50S
OWATONNA       PTCLDY   -15 -20  76 SW3       30.49S
WASECA         PTCLDY   -15 -22  70 CALM      30.51F
ALBERT LEA     PTCLDY   -11 -17  77 CALM      30.48S
$$
MNZ078>079-086>088-094>096-271100-
   Southeast Minnesota

CITY           SKY/WX    TMP DP  RH WIND       PRES   REMARKS
ROCHESTER      CLEAR    -13 -17  82 W10       30.46S WCI -32
RED WING       CLEAR    -11 -18  70 CALM      30.51R
STANTON        CLEAR     -9 -15  77 S6        30.50R WCI -23
DODGE CENTER   PTCLDY   -15 -18  84 W3        30.45S
WINONA         CLEAR     -8 -13  77 CALM      30.54R
AUSTIN         PTCLDY    -9 -15  77 NW5       30.48R WCI -21
PRESTON        PTCLDY   -12 -16  80 NW7       30.46S WCI -27
$$
ABBREVIATIONS USED IN REMARKS
   TC - TEMPERATURES IN CELSIUS
  WCI - WIND CHILL INDEX
   HX - HEAT INDEX
  VSB - VISIBILITY
$$



USA.gov is the U.S. government's official web portal to all federal, state and local government web resources and services.